Regional Weather Roundup
Issued by NWS

Home | Current Version | Previous Version | Graphics & Text | Print | Product List | Glossary On
Versions: 1 2 3 4 5 6 7 8 9 10 11 12 13 14 15 16 17 18 19 20 21 22 23 24 25 26 27 28 29 30 31 32 33 34 35 36 37 38 39 40 41 42 43 44 45 46 47 48 49 50
032
ASUS45 KBOU 251707
RWRCO

WEATHER ROUNDUP FOR COLORADO
NATIONAL WEATHER SERVICE DENVER/BOULDER CO
1100 AM MDT TUE JUL 25 2017

NOTE: "FAIR" INDICATES FEW OR NO CLOUDS BELOW 12000 FEET WITH NO
SIGNIFICANT WEATHER AND/OR OBSTRUCTIONS TO VISIBILITY.

COZ001>005-013-030-031-251800-
...NORTHWEST COLORADO...

CITY           SKY/WX    TMP DP  RH WIND       PRES   REMARKS
CRAIG          FAIR      71  55  56 NE3       30.26S
HAYDEN         FAIR      68  48  49 CALM      30.28S
MEEKER         LGT RAIN  70  57  63 CALM      30.26F
RABBIT EARS PA CLOUDY    57  46  67 W6        30.55S
STEAMBOAT SPGS CLOUDY    69  52  53 N3        30.29S
WALDEN         CLOUDY    66  46  48 NW5       30.37R
$$

COZ006>008-011-251800-
...WEST CENTRAL VALLEYS...

CITY           SKY/WX    TMP DP  RH WIND       PRES   REMARKS
GRAND JUNCTION CLOUDY    71  63  75 SE5       30.17S
MONTROSE       CLOUDY    70  61  73 NW7       30.25R
EAGLE          PTSUNNY   72  52  49 NW3       30.29S
RIFLE          LGT RAIN  67  61  81 SE3       30.23S
DELTA          FAIR      79  56  45 N5        30.20S
NUCLA          PTSUNNY   70  59  68 CALM      30.28S
$$

COZ017>023-064>068-251800-
...SOUTHWEST COLORADO...

CITY           SKY/WX    TMP DP  RH WIND       PRES   REMARKS
DURANGO        FAIR      71  55  56 VRB5      30.31S
CORTEZ         FAIR      76  59  55 CALM      30.24S
PAGOSA SPRINGS PTSUNNY   70  51  51 S3        30.38F
TELLURIDE      CLOUDY    66  50  57 S3        30.46R
WOLF CREEK PAS DRZL/FOG  46  46 100 S10G20    30.71R VSB 1/4
$$

COZ009-010-012-014-032>034-037-058>063-251800-
...CENTRAL COLORADO...

CITY           SKY/WX    TMP DP  RH WIND       PRES   REMARKS
ASPEN          FAIR      70  53  54 N8        30.33F
BUENA VISTA    FAIR      68  51  54 CALM      30.36F
COPPER MTN     CLOUDY    59  46  63 CALM      30.67S
BERTHOUD PASS  PTSUNNY   48  34  57 W22G32    30.68S
COTTONWOOD PAS CLOUDY    64  54  68 E7        30.50S
GUNNISON       FAIR      67  55  65 CALM      30.36F
KREMMLING      PTSUNNY   79  48  34 W12       30.32S
LEADVILLE      CLOUDY    60  46  59 VRB3      30.49S
MONARCH PASS   PTSUNNY   52  46  82 W17G24    30.76S
SALIDA         FAIR      75  52  44 SE7       30.39F
SUNLIGHT       CLOUDY    55  48  76 S8G17     30.59R
WILKERSON PASS FAIR      55  46  71 SW14G23   30.62R
$$

COZ069>075-251800-
...SAN LUIS VALLEY/SANGRE DE CRISTO MOUNTAINS...

CITY           SKY/WX    TMP DP  RH WIND       PRES   REMARKS
ALAMOSA        FAIR      72  54  53 VRB5      30.35F
DEL NORTE        N/A    N/A N/A N/A MISG        N/A
LA VETA PASS   NOT AVBL
SAGUACHE         N/A    N/A N/A N/A MISG        N/A
$$

COZ035-036-038>040-251800-
...NORTHERN COLORADO FRONT RANGE...

CITY           SKY/WX    TMP DP  RH WIND       PRES   REMARKS
DENVER INTL AP PTSUNNY   89  47  23 SW14      30.10S
DMNS CITY PARK   N/A     83  49  30 SW8       30.10F
AURORA         PTSUNNY   82  49  31 SW9       30.13S
FRONT RANGE AP FAIR      90  45  20 SW9G18    30.12S
ERIE MUNI ARPT FAIR      86  43  22 S5        30.08S
BOULDER MUN AP PTSUNNY   82  50  32 E6        30.08R
CENTENNIAL     PTSUNNY   81  49  32 SW17      30.15S
BROOMFIELD     FAIR      84  46  26 S9        30.13S
FORT COLLINS   FAIR      80  54  40 NE12      30.07F
LONGMONT       FAIR      81  56  41 E6        30.08S
$$

COZ041-046-047-076>085-087-088-251800-
...PIKES PEAK/PALMER DIVIDE AND SOUTHERN FOOTHILLS...

CITY           SKY/WX    TMP DP  RH WIND       PRES   REMARKS
COLO. SPRINGS  PTSUNNY   85  52  32 VRB3      30.19S
A. F. ACADEMY  FAIR      80  48  32 CALM      30.20F
SCHRIEVER AFB  FAIR      82  47  30 S5        30.20S
CHEYENNE MTN   PTSUNNY   76  53  44 SE7       30.20S
ELLICOTT       NOT AVBL
FALCON           N/A     84  44  24 SW8       30.25S
FORT CARSON    FAIR      83  53  34 SE6       30.15F
LIMON          FAIR      85  57  38 VRB3      30.12F
MONUMENT HILL  FAIR      77  50  38 W9G16     30.27F
CANON CITY     SUNNY     86  57  37 SW13      30.13S
WALSENBURG     FAIR      88  52  29 W17G28    30.20R
TRINIDAD       FAIR      88  48  25 NE3       30.17S
$$

COZ042>045-048>051-090-091-251800-
...NORTHEAST COLORADO...

CITY           SKY/WX    TMP DP  RH WIND       PRES   REMARKS
GREELEY ARPT   FAIR      77  59  53 SW12G18   30.07S
AKRON          FAIR      88  55  32 S8        30.04S
BURLINGTON     FAIR      89  65  44 S17G24    30.04F
WRAY           NOT AVBL
YUMA           FAIR      90  48  24 S13       30.01F
STERLING       FAIR      86  63  45 SW8       29.98S
HOLYOKE        FAIR      91  64  40 S14       29.99F
FORT MORGAN    FAIR      87  51  29 W7        30.04S
$$

COZ086-089-092>099-251800-
...SOUTHEAST COLORADO...

CITY           SKY/WX    TMP DP  RH WIND       PRES   REMARKS
PUEBLO         FAIR      93  50  23 W12       30.06F
LA JUNTA       FAIR      91  54  28 W8        30.04S
LAMAR          FAIR      94  57  28 VRB6      29.99F
SPRINGFIELD      N/A     90  60  36 S15G26    30.08F
$$




USA.gov is the U.S. government's official web portal to all federal, state and local government web resources and services.